• In Belarus
  • List of Countries
  • For 7 days
  • Water Temperature
  • Weather Map
  • Weather Widgets
  • user-avatar
    Login

    Hourly Weather Kitzbuhel

    Today, 3 June, Wednesday

    Time Temperature Precipitation Wind Pressure Humidity
    00:00 +9°C° 0 mm 1 mps 674 mmHg 90%
    01:00 +8°C° 0 mm 2 mps 673 mmHg 91%
    02:00 +8°C° 0 mm 2 mps 673 mmHg 89%
    03:00 +7°C° 0 mm 2 mps 673 mmHg 87%
    04:00 +8°C° 0 mm 1 mps 672 mmHg 86%
    05:00 +10°C° 0 mm 1 mps 672 mmHg 82%
    06:00 +12°C° 0 mm 1 mps 673 mmHg 78%
    07:00 +14°C° 0 mm 1 mps 673 mmHg 75%
    08:00 +16°C° 0 mm 1 mps 673 mmHg 63%
    09:00 +19°C° 0 mm 1 mps 673 mmHg 52%
    10:00 +22°C° 0 mm 1 mps 673 mmHg 41%
    11:00 +22°C° 0 mm 1 mps 673 mmHg 37%
    12:00 +23°C° 0 mm 1 mps 672 mmHg 34%
    13:00 +24°C° 0 mm 1 mps 672 mmHg 31%
    14:00 +23°C° 0 mm 1 mps 672 mmHg 34%
    15:00 +23°C° 0 mm 1 mps 671 mmHg 36%
    16:00 +22°C° 0 mm 1 mps 670 mmHg 39%
    17:00 +20°C° 0.1 mm 1 mps 670 mmHg 50%
    18:00 +19°C° 0.1 mm 1 mps 669 mmHg 61%
    19:00 +16°C° 0.1 mm 1 mps 669 mmHg 73%
    20:00 +15°C° 0 mm 1 mps 669 mmHg 73%
    21:00 +14°C° 0 mm 1 mps 669 mmHg 74%
    22:00 +13°C° 0 mm 2 mps 668 mmHg 74%
    23:00 +12°C° 0.1 mm 2 mps 668 mmHg 76%

    Tomorrow, 4 June, Thursday

    Time Temperature Precipitation Wind Pressure Humidity
    00:00 +12°C° 0.1 mm 1 mps 668 mmHg 79%
    01:00 +12°C° 0.1 mm 1 mps 668 mmHg 81%
    02:00 +11°C° 0 mm 1 mps 667 mmHg 83%
    03:00 +11°C° 0 mm 1 mps 667 mmHg 84%
    04:00 +10°C° 0 mm 1 mps 666 mmHg 86%
    05:00 +12°C° 0 mm 1 mps 666 mmHg 82%
    06:00 +13°C° 0 mm 1 mps 666 mmHg 79%
    07:00 +14°C° 0 mm 1 mps 667 mmHg 76%
    08:00 +16°C° 0 mm 1 mps 667 mmHg 70%
    09:00 +18°C° 0 mm 1 mps 667 mmHg 65%
    10:00 +20°C° 0 mm 1 mps 667 mmHg 60%
    11:00 +19°C° 0.3 mm 1 mps 667 mmHg 65%
    12:00 +19°C° 0.3 mm 1 mps 666 mmHg 69%
    13:00 +19°C° 0.3 mm 1 mps 666 mmHg 74%
    14:00 +18°C° 0.8 mm 1 mps 665 mmHg 79%
    15:00 +16°C° 0.8 mm 1 mps 665 mmHg 85%
    16:00 +14°C° 0.8 mm 1 mps 664 mmHg 90%
    17:00 +14°C° 0.4 mm 1 mps 664 mmHg 91%
    18:00 +14°C° 0.4 mm 1 mps 664 mmHg 92%
    19:00 +13°C° 0.4 mm 1 mps 663 mmHg 93%
    20:00 +12°C° 0.8 mm 1 mps 663 mmHg 95%
    21:00 +12°C° 0.8 mm 1 mps 663 mmHg 96%
    22:00 +11°C° 0.8 mm 1 mps 663 mmHg 98%
    23:00 +11°C° 2.5 mm 1 mps 663 mmHg 98%

    Day after tomorrow, 5 June, Friday

    Time Temperature Precipitation Wind Pressure Humidity
    00:00 +11°C° 2.5 mm 1 mps 663 mmHg 98%
    01:00 +10°C° 2.5 mm 1 mps 662 mmHg 98%
    02:00 +10°C° 3.3 mm 1 mps 662 mmHg 98%
    03:00 +9°C° 3.3 mm 1 mps 662 mmHg 98%
    04:00 +9°C° 3.3 mm 1 mps 662 mmHg 98%
    05:00 +9°C° 1.9 mm 1 mps 662 mmHg 98%
    06:00 +9°C° 1.9 mm 1 mps 663 mmHg 98%
    07:00 +9°C° 1.9 mm 1 mps 663 mmHg 97%
    08:00 +9°C° 1.5 mm 1 mps 663 mmHg 97%
    09:00 +9°C° 1.5 mm 1 mps 664 mmHg 97%
    10:00 +9°C° 1.5 mm 1 mps 664 mmHg 97%
    11:00 +10°C° 1.1 mm 1 mps 664 mmHg 95%
    12:00 +10°C° 1.1 mm 1 mps 665 mmHg 92%
    13:00 +10°C° 1.1 mm 1 mps 665 mmHg 90%
    14:00 +11°C° 0.2 mm 1 mps 665 mmHg 87%
    15:00 +12°C° 0.2 mm 1 mps 665 mmHg 85%
    16:00 +11°C° 0.2 mm 0 mps 666 mmHg 82%
    17:00 +11°C° 0.2 mm 0 mps 666 mmHg 84%
    18:00 +11°C° 0.2 mm 0 mps 666 mmHg 87%
    19:00 +10°C° 0.2 mm 0 mps 666 mmHg 89%
    20:00 +9°C° 0 mm 0 mps 667 mmHg 90%
    21:00 +9°C° 0 mm 1 mps 667 mmHg 90%
    22:00 +9°C° 0 mm 1 mps 667 mmHg 91%
    23:00 +8°C° 0 mm 1 mps 667 mmHg 91%

    6 June, Saturday

    Time Temperature Precipitation Wind Pressure Humidity
    00:00 +6°C° 0 mm 2 mps 667 mmHg 91%
    01:00 +5°C° 0 mm 2 mps 667 mmHg 91%
    02:00 +5°C° 0 mm 2 mps 667 mmHg 91%
    03:00 +5°C° 0 mm 2 mps 668 mmHg 91%
    04:00 +5°C° 0 mm 2 mps 668 mmHg 90%
    05:00 +8°C° 0 mm 1 mps 668 mmHg 87%
    06:00 +10°C° 0 mm 1 mps 669 mmHg 84%
    07:00 +12°C° 0 mm 1 mps 669 mmHg 81%
    08:00 +14°C° 0 mm 1 mps 670 mmHg 73%
    09:00 +16°C° 0 mm 1 mps 671 mmHg 64%
    10:00 +18°C° 0 mm 2 mps 671 mmHg 55%
    11:00 +18°C° 0.1 mm 2 mps 671 mmHg 59%
    12:00 +17°C° 0.1 mm 2 mps 671 mmHg 63%
    13:00 +17°C° 0.1 mm 2 mps 671 mmHg 66%
    14:00 +16°C° 0.2 mm 2 mps 670 mmHg 71%
    15:00 +16°C° 0.2 mm 2 mps 670 mmHg 76%
    16:00 +15°C° 0.2 mm 1 mps 670 mmHg 80%
    17:00 +14°C° 0.7 mm 1 mps 670 mmHg 86%
    18:00 +13°C° 0.7 mm 1 mps 670 mmHg 92%
    19:00 +12°C° 0.7 mm 1 mps 670 mmHg 97%
    20:00 +12°C° 0.5 mm 1 mps 670 mmHg 97%
    21:00 +12°C° 0.5 mm 1 mps 671 mmHg 97%
    22:00 +11°C° 0.5 mm 1 mps 671 mmHg 98%
    23:00 +11°C° 0.4 mm 1 mps 671 mmHg 97%

    7 June, Sunday

    Time Temperature Precipitation Wind Pressure Humidity
    00:00 +11°C° 0.4 mm 1 mps 670 mmHg 97%
    01:00 +11°C° 0.4 mm 1 mps 670 mmHg 97%
    02:00 +11°C° 0.2 mm 1 mps 670 mmHg 97%
    03:00 +11°C° 0.2 mm 1 mps 670 mmHg 97%
    04:00 +10°C° 0.2 mm 0 mps 670 mmHg 97%
    05:00 +10°C° 1.3 mm 0 mps 670 mmHg 97%
    06:00 +11°C° 1.3 mm 1 mps 671 mmHg 97%
    07:00 +11°C° 1.3 mm 1 mps 671 mmHg 98%
    08:00 +11°C° 0.7 mm 1 mps 671 mmHg 98%
    09:00 +11°C° 0.7 mm 1 mps 671 mmHg 98%
    10:00 +11°C° 0.7 mm 1 mps 672 mmHg 98%
    11:00 +10°C° 0.6 mm 1 mps 672 mmHg 98%
    12:00 +10°C° 0.6 mm 1 mps 672 mmHg 98%
    13:00 +9°C° 0.6 mm 2 mps 672 mmHg 98%
    14:00 +8°C° 0.9 mm 2 mps 672 mmHg 98%
    15:00 +8°C° 0.9 mm 2 mps 672 mmHg 98%
    16:00 +8°C° 0.9 mm 1 mps 672 mmHg 98%
    17:00 +8°C° 0.9 mm 1 mps 672 mmHg 98%
    18:00 +8°C° 0.9 mm 1 mps 672 mmHg 98%
    19:00 +7°C° 0.9 mm 1 mps 672 mmHg 98%
    20:00 +7°C° 0.7 mm 1 mps 673 mmHg 98%
    21:00 +6°C° 0.7 mm 0 mps 673 mmHg 98%
    22:00 +7°C° 0.7 mm 0 mps 673 mmHg 98%
    23:00 +7°C° 1.2 mm 0 mps 673 mmHg 98%

    8 June, Monday

    Time Temperature Precipitation Wind Pressure Humidity
    00:00 +7°C° 1.2 mm 0 mps 673 mmHg 98%
    01:00 +7°C° 1.2 mm 0 mps 673 mmHg 99%
    02:00 +8°C° 0.8 mm 1 mps 673 mmHg 98%
    03:00 +7°C° 0.8 mm 1 mps 672 mmHg 98%
    04:00 +7°C° 0.8 mm 1 mps 672 mmHg 98%
    05:00 +7°C° 0.7 mm 1 mps 672 mmHg 98%
    06:00 +7°C° 0.7 mm 1 mps 673 mmHg 97%
    07:00 +7°C° 0.7 mm 1 mps 673 mmHg 97%
    08:00 +7°C° 0.8 mm 1 mps 673 mmHg 96%
    09:00 +7°C° 0.8 mm 1 mps 673 mmHg 96%
    10:00 +7°C° 0.8 mm 1 mps 673 mmHg 96%
    11:00 +7°C° 0.7 mm 1 mps 673 mmHg 95%
    12:00 +8°C° 0.7 mm 1 mps 673 mmHg 94%
    13:00 +8°C° 0.7 mm 1 mps 674 mmHg 93%
    14:00 +9°C° 0.4 mm 1 mps 674 mmHg 89%
    15:00 +10°C° 0.4 mm 1 mps 674 mmHg 85%
    16:00 +11°C° 0.4 mm 1 mps 674 mmHg 80%
    17:00 +11°C° 0 mm 1 mps 674 mmHg 81%
    18:00 +11°C° 0 mm 1 mps 674 mmHg 82%
    19:00 +9°C° 0 mm 0 mps 674 mmHg 83%
    20:00 +9°C° 0 mm 1 mps 674 mmHg 85%
    21:00 +7°C° 0 mm 1 mps 675 mmHg 86%
    22:00 +5°C° 0 mm 2 mps 675 mmHg 87%
    23:00 +5°C° 0 mm 2 mps 675 mmHg 86%
    Show more